Home   Weather   Everett   Past weeks

Flag for USA Past Weather in Everett, Washington, USA — Yesterday and Last 2 Weeks

Now
44 °F

Mostly cloudy.


Feels Like: 40 °F
Forecast: 43 / 49 °F
Wind: 8 mph from Southeast

Location: Snohomish County Airport

Current Time: Jan 17, 2017 at 1:42:26 pm

Latest Report: Jan 17, 2017 at 1:00 pm


Visibility: 5 mi

Pressure: 29.71 "Hg

Humidity: 82%

Dew Point: 39 °F

Location of EverettLocation

Past Weather in Everett — Graph

°F

Everett Temperature Yesterday

Maximum temperature yesterday: 47 °F (at 2:53 pm)
Minimum temperature yesterday: 32 °F (at 2:53 am)
Average temperature yesterday: 41 °F

High & Low Weather Summary for the Past Weeks

 TemperatureHumidityPressure
High47 °F (Jan 16, 2:53 pm)100% (Jan 8, 9:31 pm)30.46 "Hg (Jan 8, 9:31 pm)
Low21 °F (Jan 5, 6:53 am)34% (Jan 7, 10:53 am)29.44 "Hg (Jan 8, 3:17 pm)
Average33 °F66%30.02 "Hg
* Reported Jan 2 12:53 pm — Jan 17 12:38 pm, Everett, Weather by CustomWeather, © 2017

Note: Actual official high and low records may vary slightly from our data, if they occured in-between our weather recording intervals... More about our weather records

Advertising

Everett Weather History for the Previous 24 Hours

Scroll right to see more
 ConditionsComfort  
Time TempWeatherWind HumidityBarometerVisibility
12:38 pm
Tue, Jan 17
44 °FOvercast.12 mph82%29.72 "Hg1 mi
12:02 pm45 °FMostly cloudy.10 mph76%29.74 "Hg2 mi
10:53 am45 °FScattered clouds.14 mph71%29.76 "Hg10 mi
9:53 am42 °FOvercast.No wind82%29.76 "Hg9 mi
8:53 am41 °FPartly sunny.5 mph82%29.75 "Hg10 mi
7:53 am40 °FMostly cloudy.9 mph83%29.76 "Hg10 mi
6:53 am42 °FOvercast.8 mph76%29.77 "Hg10 mi
5:53 am43 °FPartly cloudy.14 mph71%29.80 "Hg10 mi
4:53 am42 °FPassing clouds.10 mph68%29.83 "Hg10 mi
3:53 am43 °FOvercast.14 mph71%29.88 "Hg7 mi
2:53 am43 °FMostly cloudy.16 mph65%29.89 "Hg10 mi
1:53 am43 °FPassing clouds.13 mph51%29.89 "Hg10 mi
12:53 am47 °FOvercast.16 mph44%29.90 "Hg10 mi
11:53 pm
Mon, Jan 16
45 °FPassing clouds.9 mph45%29.92 "Hg10 mi
10:53 pm47 °FOvercast.8 mph44%29.92 "Hg10 mi
9:53 pm46 °FOvercast.15 mph46%29.96 "Hg10 mi
8:53 pm45 °FOvercast.10 mph51%29.96 "Hg10 mi
7:53 pm46 °FOvercast.17 mph51%29.98 "Hg10 mi
6:53 pm47 °FOvercast.18 mph48%29.98 "Hg10 mi
5:53 pm46 °FMostly cloudy.15 mph51%29.97 "Hg10 mi
4:53 pm45 °FOvercast.15 mph51%29.98 "Hg9 mi
3:53 pm45 °FScattered clouds.14 mph49%30.01 "Hg10 mi
2:53 pm47 °FPartly sunny.14 mph42%30.03 "Hg10 mi
1:53 pm46 °FOvercast.7 mph40%30.05 "Hg10 mi
Weather by CustomWeather, © 2017

See weather overviewHow to use our weather pages